General Heriberto Jara International Airport
MMVR : now visible

Airfield :











YOU CAN JOIN US ON...

 
LOGIN :

Register | Disclaimer

   EN    FR    IT 

 









Legend :    VFR   Marginal VFR   IFR   Intensive IFR   Very Intensive IFR
Visi :
Ceiling :
>= 8 km
>= 3000ft
5 to 8 km
1000 to 3000 ft
1500m to 5 km
500 to 1000 ft
800 to 1500m
200 to 500 ft
< 800m
< 200 ft
Symbols :   Thunderstorms  Fog  Heavy snow  Heavy precipitations  Wind > 20 kt






- Airport Elevation : 90 ft
- IATA code : VER


MMVR - General Heriberto Jara International

CURRENT METAR :
  • 220252Z 18006KT 7SM SKC 30/24 A2979 RMK SLP076 52025 900 DSNT CB 3TH QUAD FRQ LTGIC

EXPIRED METARs :
  • 220143Z 12002KT 7SM SCT250 30/26 A2976 RMK 8/008 DSNT CB 3TH 4TH QUAD

TAF TAF MMVR
Valid from the 21 at 18:00 until the 22 at 18:00 UTC


211722Z 2118/2218 17006KT 6SM HZ SCT020 BKN250 TX35/2122Z TN25/2213Z
BECMG 2120/2121 32012KT
FM220200 00000KT 6SM HZ SCT020 BKN100
BECMG 2211/2212 BKN020
FM221600 16005KT 6SM HZ SCT100 BKN250
MMFR FIR / North America



MET'MAP, your aeronautical weather chart ! - Copyright ORBIFLY December 2007 - Disclaimer

ORBIFLY MET'MAP TEAM :

Programming & Development : Alexandra Zaïnal
Concept & original design : Baudouin d'Aumeries
Assistance for programming : Marc-Olivier Méhu
Technical & hardware support : Manuel Goepfert

Contact : metmap@orbifly.com




SOURCES & CREDITS :

   NOAA       Earth
Advisory